Time,TemperatureF,DewpointF,PressureIn,WindDirection,WindDirectionDegrees,WindSpeedMPH,WindSpeedGustMPH,Humidity,HourlyPrecipIn,Conditions,Clouds,dailyrainin,SoftwareType,DateUTC
2013-09-02 00:04:00,57.2,48.6,28.02,West,270,0.0,0.0,73,0.00,,---,0.00,VWS V14.01,2013-09-02 07:04:00,
2013-09-02 00:09:00,57.4,48.8,28.02,NNW,338,0.0,0.0,73,0.00,,---,0.00,VWS V14.01,2013-09-02 07:09:00,
2013-09-02 00:14:00,57.6,49.0,28.02,SW,225,0.0,0.0,73,0.00,,---,0.00,VWS V14.01,2013-09-02 07:14:00,
2013-09-02 00:19:00,57.9,49.3,28.02,WSW,248,0.0,0.0,73,0.00,,---,0.00,VWS V14.01,2013-09-02 07:19:00,
2013-09-02 00:24:00,58.3,49.7,28.02,SSE,158,0.0,0.0,73,0.00,,---,0.00,VWS V14.01,2013-09-02 07:24:00,
2013-09-02 00:29:00,58.3,49.7,28.02,WSW,248,0.0,0.0,73,0.00,,---,0.00,VWS V14.01,2013-09-02 07:29:00,
2013-09-02 00:34:00,58.1,49.5,28.02,WSW,248,0.0,0.0,73,0.00,,---,0.00,VWS V14.01,2013-09-02 07:34:00,
2013-09-02 00:39:00,57.9,49.3,28.02,West,270,0.0,2.5,73,0.00,,---,0.00,VWS V14.01,2013-09-02 07:39:00,
2013-09-02 00:44:00,58.6,49.7,27.99,South,180,2.7,2.7,72,0.00,,---,0.00,VWS V14.01,2013-09-02 07:44:00,
2013-09-02 00:49:00,58.6,49.7,27.99,SSW,202,0.0,0.0,72,0.00,,---,0.00,VWS V14.01,2013-09-02 07:49:00,
2013-09-02 00:54:00,58.8,49.8,27.99,SW,225,0.0,0.0,72,0.00,,---,0.00,VWS V14.01,2013-09-02 07:54:00,
2013-09-02 00:59:00,59.0,49.6,27.99,SW,225,0.0,0.0,71,0.00,,---,0.00,VWS V14.01,2013-09-02 07:59:00,
2013-09-02 01:04:00,58.6,49.3,27.99,West,270,0.0,0.0,71,0.00,,---,0.00,VWS V14.01,2013-09-02 08:04:00,
2013-09-02 01:09:00,58.5,49.1,27.99,WSW,248,0.0,0.0,71,0.00,,---,0.00,VWS V14.01,2013-09-02 08:09:00,
2013-09-02 01:14:00,58.5,49.1,27.99,WSW,248,0.0,0.0,71,0.00,,---,0.00,VWS V14.01,2013-09-02 08:14:00,
2013-09-02 01:19:00,58.5,49.5,27.99,ESE,112,0.0,1.6,72,0.00,,---,0.00,VWS V14.01,2013-09-02 08:19:00,
2013-09-02 01:24:00,58.6,49.7,27.99,WSW,248,0.0,0.0,72,0.00,,---,0.00,VWS V14.01,2013-09-02 08:24:00,
2013-09-02 01:29:00,58.8,49.8,27.99,ENE,68,2.2,3.6,72,0.00,,---,0.00,VWS V14.01,2013-09-02 08:29:00,
2013-09-02 01:34:00,59.0,49.6,27.99,SSE,158,0.0,0.0,71,0.00,,---,0.00,VWS V14.01,2013-09-02 08:34:00,
2013-09-02 01:39:00,58.6,49.7,27.99,SSE,158,0.0,0.0,72,0.00,,---,0.00,VWS V14.01,2013-09-02 08:39:00,
2013-09-02 01:44:00,58.5,49.1,27.99,WSW,248,0.0,0.0,71,0.00,,---,0.00,VWS V14.01,2013-09-02 08:44:00,
2013-09-02 01:49:00,58.3,48.9,27.99,SW,225,0.0,0.0,71,0.00,,---,0.00,VWS V14.01,2013-09-02 08:49:00,
2013-09-02 01:54:00,58.3,48.9,27.99,SSW,202,0.0,0.0,71,0.00,,---,0.00,VWS V14.01,2013-09-02 08:54:00,
2013-09-02 01:59:00,58.1,49.1,27.99,SSE,158,0.0,0.0,72,0.00,,---,0.00,VWS V14.01,2013-09-02 08:59:00,
2013-09-02 02:04:00,57.9,49.0,27.99,SSW,202,0.0,0.0,72,0.00,,---,0.00,VWS V14.01,2013-09-02 09:04:00,
2013-09-02 02:09:00,57.6,48.6,27.99,SW,225,0.0,0.0,72,0.00,,---,0.00,VWS V14.01,2013-09-02 09:09:00,
2013-09-02 02:14:00,57.6,49.0,28.02,SW,225,0.0,0.0,73,0.00,,---,0.00,VWS V14.01,2013-09-02 09:14:00,
2013-09-02 02:19:00,57.2,48.6,28.02,WNW,292,0.0,0.0,73,0.00,,---,0.00,VWS V14.01,2013-09-02 09:19:00,
2013-09-02 02:24:00,56.8,48.7,28.02,WSW,248,0.0,0.0,74,0.00,,---,0.00,VWS V14.01,2013-09-02 09:24:00,
2013-09-02 02:29:00,56.5,48.3,28.02,WSW,248,0.0,0.0,74,0.00,,---,0.00,VWS V14.01,2013-09-02 09:29:00,
2013-09-02 02:34:00,56.3,48.1,28.02,WSW,248,0.0,0.0,74,0.00,,---,0.00,VWS V14.01,2013-09-02 09:34:00,
2013-09-02 02:39:00,55.9,47.8,28.02,WSW,248,0.0,0.0,74,0.00,,---,0.00,VWS V14.01,2013-09-02 09:39:00,
2013-09-02 02:44:00,55.6,47.4,28.02,WSW,248,0.0,0.0,74,0.00,,---,0.00,VWS V14.01,2013-09-02 09:44:00,
2013-09-02 02:49:00,55.2,47.5,28.02,WSW,248,0.0,0.0,75,0.00,,---,0.00,VWS V14.01,2013-09-02 09:49:00,
2013-09-02 02:54:00,54.9,47.1,28.02,WSW,248,0.0,0.0,75,0.00,,---,0.00,VWS V14.01,2013-09-02 09:54:00,
2013-09-02 02:59:00,54.7,47.3,28.02,West,270,0.0,0.0,76,0.00,,---,0.00,VWS V14.01,2013-09-02 09:59:00,
2013-09-02 03:04:00,54.5,47.1,28.02,West,270,0.0,0.0,76,0.00,,---,0.00,VWS V14.01,2013-09-02 10:04:00,
2013-09-02 03:09:00,54.5,47.5,28.02,West,270,0.0,0.0,77,0.00,,---,0.00,VWS V14.01,2013-09-02 10:09:00,
2013-09-02 03:14:00,54.3,47.3,28.02,West,270,0.0,0.0,77,0.00,,---,0.00,VWS V14.01,2013-09-02 10:14:00,
2013-09-02 03:19:00,54.1,47.1,28.02,West,270,0.0,0.0,77,0.00,,---,0.00,VWS V14.01,2013-09-02 10:19:00,
2013-09-02 03:24:00,54.3,47.6,28.02,WNW,292,0.0,0.0,78,0.00,,---,0.00,VWS V14.01,2013-09-02 10:24:00,
2013-09-02 03:29:00,54.0,47.3,28.02,West,270,0.0,0.0,78,0.00,,---,0.00,VWS V14.01,2013-09-02 10:29:00,
2013-09-02 03:34:00,54.0,47.3,28.02,NW,315,0.0,0.0,78,0.00,,---,0.00,VWS V14.01,2013-09-02 10:34:00,
2013-09-02 03:39:00,53.8,47.4,28.02,WNW,292,0.0,0.0,79,0.00,,---,0.00,VWS V14.01,2013-09-02 10:39:00,
2013-09-02 03:44:00,53.6,47.3,28.02,WNW,292,0.0,0.0,79,0.00,,---,0.00,VWS V14.01,2013-09-02 10:44:00,
2013-09-02 03:49:00,53.8,47.4,28.02,West,270,0.0,0.0,79,0.00,,---,0.00,VWS V14.01,2013-09-02 10:49:00,
2013-09-02 03:54:00,53.8,47.4,28.02,West,270,0.0,0.0,79,0.00,,---,0.00,VWS V14.01,2013-09-02 10:54:00,
2013-09-02 03:59:00,53.6,47.3,28.02,West,270,0.0,0.0,79,0.00,,---,0.00,VWS V14.01,2013-09-02 10:59:00,
2013-09-02 04:04:00,53.6,47.3,28.02,West,270,0.0,0.0,79,0.00,,---,0.00,VWS V14.01,2013-09-02 11:04:00,
2013-09-02 04:09:00,53.4,47.4,28.02,West,270,0.0,0.0,80,0.00,,---,0.00,VWS V14.01,2013-09-02 11:09:00,
2013-09-02 04:14:00,53.2,47.2,28.02,West,270,0.0,0.0,80,0.00,,---,0.00,VWS V14.01,2013-09-02 11:14:00,
2013-09-02 04:19:00,53.2,47.6,28.02,West,270,0.0,0.0,81,0.00,,---,0.00,VWS V14.01,2013-09-02 11:19:00,
2013-09-02 04:24:00,53.1,47.4,28.02,West,270,0.0,0.0,81,0.00,,---,0.00,VWS V14.01,2013-09-02 11:24:00,
2013-09-02 04:29:00,53.1,47.4,28.02,West,270,0.0,0.0,81,0.00,,---,0.00,VWS V14.01,2013-09-02 11:29:00,
2013-09-02 04:34:00,52.9,47.2,28.02,WSW,248,0.0,0.0,81,0.00,,---,0.00,VWS V14.01,2013-09-02 11:34:00,
2013-09-02 04:39:00,52.9,47.5,28.02,SSW,202,0.0,0.0,82,0.00,,---,0.00,VWS V14.01,2013-09-02 11:39:00,
2013-09-02 04:44:00,53.1,47.7,28.02,West,270,0.0,0.0,82,0.00,,---,0.00,VWS V14.01,2013-09-02 11:44:00,
2013-09-02 04:49:00,52.7,47.4,28.02,NW,315,0.0,0.0,82,0.00,,---,0.00,VWS V14.01,2013-09-02 11:49:00,
2013-09-02 04:55:00,52.9,47.5,28.02,NW,315,0.0,0.0,82,0.00,,---,0.00,VWS V14.01,2013-09-02 11:55:00,
2013-09-02 05:00:00,52.9,47.5,28.02,WNW,292,0.0,0.0,82,0.00,,---,0.00,VWS V14.01,2013-09-02 12:00:00,
2013-09-02 05:05:00,52.7,47.4,28.02,WNW,292,0.0,0.0,82,0.00,,---,0.00,VWS V14.01,2013-09-02 12:05:00,
2013-09-02 05:10:00,52.3,47.0,28.02,ENE,68,0.0,0.0,82,0.00,,---,0.00,VWS V14.01,2013-09-02 12:10:00,
2013-09-02 05:15:00,52.5,47.2,28.02,West,270,2.0,2.0,82,0.00,,---,0.00,VWS V14.01,2013-09-02 12:15:00,
2013-09-02 05:20:00,52.5,47.2,28.02,SSW,202,0.0,0.0,82,0.00,,---,0.00,VWS V14.01,2013-09-02 12:20:00,
2013-09-02 05:25:00,52.3,47.0,28.02,SW,225,0.0,0.0,82,0.00,,---,0.00,VWS V14.01,2013-09-02 12:25:00,
2013-09-02 05:30:00,52.3,47.0,28.02,WSW,248,0.0,0.0,82,0.00,,---,0.00,VWS V14.01,2013-09-02 12:30:00,
2013-09-02 05:35:00,52.2,46.8,28.02,West,270,0.0,0.0,82,0.00,,---,0.00,VWS V14.01,2013-09-02 12:35:00,
2013-09-02 05:40:00,52.0,46.7,28.02,West,270,0.0,0.0,82,0.00,,---,0.00,VWS V14.01,2013-09-02 12:40:00,
2013-09-02 05:45:00,51.8,46.5,28.02,WSW,248,0.0,0.0,82,0.00,,---,0.00,VWS V14.01,2013-09-02 12:45:00,
2013-09-02 05:50:00,51.8,46.5,28.02,West,270,0.0,0.0,82,0.00,,---,0.00,VWS V14.01,2013-09-02 12:50:00,
2013-09-02 05:55:00,51.8,46.5,28.02,SSW,202,0.0,0.0,82,0.00,,---,0.00,VWS V14.01,2013-09-02 12:55:00,
2013-09-02 06:00:00,51.6,46.6,28.02,WSW,248,0.0,0.0,83,0.00,,---,0.00,VWS V14.01,2013-09-02 13:00:00,
2013-09-02 06:05:00,51.4,46.5,28.02,SSW,202,0.0,0.0,83,0.00,,---,0.00,VWS V14.01,2013-09-02 13:05:00,
2013-09-02 06:10:00,51.4,46.5,28.02,SSW,202,0.0,0.0,83,0.00,,---,0.00,VWS V14.01,2013-09-02 13:10:00,
2013-09-02 06:15:00,51.4,46.5,28.02,ESE,112,0.0,0.0,83,0.00,,---,0.00,VWS V14.01,2013-09-02 13:15:00,
2013-09-02 06:20:00,51.4,46.8,28.02,South,180,0.0,0.0,84,0.00,,---,0.00,VWS V14.01,2013-09-02 13:20:00,
2013-09-02 06:25:00,51.3,46.3,28.02,ESE,112,0.0,0.9,83,0.00,,---,0.00,VWS V14.01,2013-09-02 13:25:00,
2013-09-02 06:30:00,51.4,46.8,28.02,WNW,292,0.0,0.0,84,0.00,,---,0.00,VWS V14.01,2013-09-02 13:30:00,
2013-09-02 06:35:00,51.4,46.5,28.02,WSW,248,0.0,0.0,83,0.00,,---,0.00,VWS V14.01,2013-09-02 13:35:00,
2013-09-02 06:40:00,51.8,46.8,28.02,WNW,292,0.0,0.0,83,0.00,,---,0.00,VWS V14.01,2013-09-02 13:40:00,
2013-09-02 06:45:00,52.0,46.7,28.02,SSW,202,0.0,0.0,82,0.00,,---,0.00,VWS V14.01,2013-09-02 13:45:00,
2013-09-02 06:50:00,52.0,46.7,28.02,WNW,292,0.0,0.0,82,0.00,,---,0.00,VWS V14.01,2013-09-02 13:50:00,
2013-09-02 06:55:00,52.0,46.7,28.02,SW,225,0.0,0.0,82,0.00,,---,0.00,VWS V14.01,2013-09-02 13:55:00,
2013-09-02 07:00:00,52.0,46.3,28.02,SW,225,0.0,0.0,81,0.00,,---,0.00,VWS V14.01,2013-09-02 14:00:00,
2013-09-02 07:05:00,51.8,46.2,28.02,WSW,248,0.0,0.0,81,0.00,,---,0.00,VWS V14.01,2013-09-02 14:05:00,
2013-09-02 07:10:00,51.6,46.0,28.02,SW,225,0.0,0.0,81,0.00,,---,0.00,VWS V14.01,2013-09-02 14:10:00,
2013-09-02 07:15:00,51.6,46.0,28.02,SW,225,0.0,0.0,81,0.00,,---,0.00,VWS V14.01,2013-09-02 14:15:00,
2013-09-02 07:20:00,51.6,46.3,28.02,West,270,0.0,0.0,82,0.00,,---,0.00,VWS V14.01,2013-09-02 14:20:00,
2013-09-02 07:25:00,51.8,46.2,28.02,WSW,248,0.0,0.0,81,0.00,,---,0.00,VWS V14.01,2013-09-02 14:25:00,
2013-09-02 07:30:00,52.0,46.3,28.02,NNE,22,0.0,0.0,81,0.00,,---,0.00,VWS V14.01,2013-09-02 14:30:00,
2013-09-02 07:35:00,52.9,47.5,28.02,East,90,0.0,0.0,82,0.00,,---,0.00,VWS V14.01,2013-09-02 14:35:00,
2013-09-02 07:40:00,53.2,47.6,28.02,SW,225,0.0,0.0,81,0.00,,---,0.00,VWS V14.01,2013-09-02 14:40:00,
2013-09-02 07:45:00,53.8,48.1,28.05,WNW,292,0.0,0.0,81,0.00,,---,0.00,VWS V14.01,2013-09-02 14:45:00,
2013-09-02 07:50:00,54.0,48.3,28.05,WNW,292,0.0,0.0,81,0.00,,---,0.00,VWS V14.01,2013-09-02 14:50:00,
2013-09-02 07:55:00,54.5,48.5,28.05,WNW,292,0.0,0.0,80,0.00,,---,0.00,VWS V14.01,2013-09-02 14:55:00,
2013-09-02 08:00:00,55.0,49.0,28.05,WNW,292,0.0,0.0,80,0.00,,---,0.00,VWS V14.01,2013-09-02 15:00:00,
2013-09-02 08:05:00,55.6,49.2,28.05,WNW,292,0.0,0.0,79,0.00,,---,0.00,VWS V14.01,2013-09-02 15:05:00,
2013-09-02 08:10:00,56.3,49.9,28.05,WNW,292,0.0,0.0,79,0.00,,---,0.00,VWS V14.01,2013-09-02 15:10:00,
2013-09-02 08:15:00,57.0,50.6,28.02,WNW,292,0.0,0.0,79,0.00,,---,0.00,VWS V14.01,2013-09-02 15:15:00,
2013-09-02 08:20:00,57.4,50.2,28.02,WNW,292,0.0,0.0,77,0.00,,---,0.00,VWS V14.01,2013-09-02 15:20:00,
2013-09-02 08:25:00,58.1,51.3,28.02,WNW,292,0.0,0.0,78,0.00,,---,0.00,VWS V14.01,2013-09-02 15:25:00,
2013-09-02 08:30:00,59.4,52.2,28.02,WNW,292,0.0,0.0,77,0.00,,---,0.00,VWS V14.01,2013-09-02 15:30:00,
2013-09-02 08:36:00,60.6,53.4,28.02,WNW,292,0.0,0.0,77,0.00,,---,0.00,VWS V14.01,2013-09-02 15:36:00,
2013-09-02 08:41:00,62.6,54.9,28.02,WNW,292,0.0,0.0,76,0.00,,---,0.00,VWS V14.01,2013-09-02 15:41:00,
2013-09-02 08:46:00,64.2,55.4,28.02,East,90,0.0,0.0,73,0.00,,---,0.00,VWS V14.01,2013-09-02 15:46:00,
2013-09-02 08:51:00,65.3,55.3,28.02,South,180,0.0,0.0,70,0.00,,---,0.00,VWS V14.01,2013-09-02 15:51:00,
2013-09-02 08:56:00,64.2,53.8,28.02,South,180,0.0,0.0,69,0.00,,---,0.00,VWS V14.01,2013-09-02 15:56:00,
2013-09-02 09:01:00,64.8,54.4,28.05,South,180,0.0,0.0,69,0.00,,---,0.00,VWS V14.01,2013-09-02 16:01:00,
2013-09-02 09:06:00,66.9,56.4,28.05,SSE,158,0.0,0.0,69,0.00,,---,0.00,VWS V14.01,2013-09-02 16:06:00,
2013-09-02 09:11:00,68.7,57.3,28.05,East,90,0.0,0.0,67,0.00,,---,0.00,VWS V14.01,2013-09-02 16:11:00,
2013-09-02 09:16:00,69.8,55.3,28.05,NNE,22,0.0,0.0,60,0.00,,---,0.00,VWS V14.01,2013-09-02 16:16:00,
2013-09-02 09:21:00,69.6,52.8,28.05,East,90,0.0,0.0,55,0.00,,---,0.00,VWS V14.01,2013-09-02 16:21:00,
2013-09-02 09:26:00,69.8,52.4,28.05,ENE,68,0.0,0.0,54,0.00,,---,0.00,VWS V14.01,2013-09-02 16:26:00,
2013-09-02 09:31:00,69.8,50.3,28.05,NNE,22,0.0,0.0,50,0.00,,---,0.00,VWS V14.01,2013-09-02 16:31:00,
2013-09-02 09:36:00,70.0,50.5,28.05,NNE,22,0.0,0.0,50,0.00,,---,0.00,VWS V14.01,2013-09-02 16:36:00,
2013-09-02 09:41:00,70.3,49.7,28.05,North,0,0.0,0.0,48,0.00,,---,0.00,VWS V14.01,2013-09-02 16:41:00,
2013-09-02 09:46:00,70.5,49.9,28.05,North,0,0.0,0.0,48,0.00,,---,0.00,VWS V14.01,2013-09-02 16:46:00,
2013-09-02 09:51:00,71.4,49.0,28.05,ENE,68,0.0,0.0,45,0.00,,---,0.00,VWS V14.01,2013-09-02 16:51:00,
2013-09-02 09:56:00,72.9,50.9,28.05,ENE,68,0.0,0.0,46,0.00,,---,0.00,VWS V14.01,2013-09-02 16:56:00,
2013-09-02 10:01:00,73.9,51.3,28.05,East,90,0.0,0.0,45,0.00,,---,0.00,VWS V14.01,2013-09-02 17:01:00,
2013-09-02 10:06:00,74.8,48.9,28.05,NNE,22,0.0,0.0,40,0.00,,---,0.00,VWS V14.01,2013-09-02 17:06:00,
2013-09-02 10:11:00,74.5,48.6,28.05,NNE,22,0.0,0.0,40,0.00,,---,0.00,VWS V14.01,2013-09-02 17:11:00,
2013-09-02 10:16:00,75.4,50.1,28.05,NNE,22,0.0,0.0,41,0.00,,---,0.00,VWS V14.01,2013-09-02 17:16:00,
2013-09-02 10:21:00,75.7,50.4,28.05,NNE,22,0.0,0.0,41,0.00,,---,0.00,VWS V14.01,2013-09-02 17:21:00,
2013-09-02 10:26:00,75.6,47.5,28.05,WSW,248,0.0,0.0,37,0.00,,---,0.00,VWS V14.01,2013-09-02 17:26:00,
2013-09-02 10:31:00,76.3,49.5,28.02,NNE,22,0.0,0.0,39,0.00,,---,0.00,VWS V14.01,2013-09-02 17:31:00,
2013-09-02 10:36:00,76.3,45.9,28.02,NNE,22,2.9,3.4,34,0.00,,---,0.00,VWS V14.01,2013-09-02 17:36:00,
2013-09-02 10:41:00,77.4,46.8,28.02,NE,45,1.6,2.5,34,0.00,,---,0.00,VWS V14.01,2013-09-02 17:41:00,
2013-09-02 10:46:00,78.1,48.2,28.02,WNW,292,0.0,0.0,35,0.00,,---,0.00,VWS V14.01,2013-09-02 17:46:00,
2013-09-02 10:51:00,79.2,47.6,28.02,NW,315,0.0,0.0,33,0.00,,---,0.00,VWS V14.01,2013-09-02 17:51:00,
2013-09-02 10:56:00,78.6,47.1,28.02,NNE,22,0.0,0.0,33,0.00,,---,0.00,VWS V14.01,2013-09-02 17:56:00,
2013-09-02 11:01:00,78.1,48.2,28.02,NNE,22,0.0,0.0,35,0.00,,---,0.00,VWS V14.01,2013-09-02 18:01:00,
2013-09-02 11:06:00,77.7,47.9,28.02,ENE,68,0.0,0.0,35,0.00,,---,0.00,VWS V14.01,2013-09-02 18:06:00,
2013-09-02 11:11:00,79.0,49.8,28.02,ENE,68,0.0,0.0,36,0.00,,---,0.00,VWS V14.01,2013-09-02 18:11:00,
2013-09-02 11:16:00,78.8,48.9,28.02,ESE,112,0.0,0.0,35,0.00,,---,0.00,VWS V14.01,2013-09-02 18:16:00,
2013-09-02 11:21:00,79.5,48.7,28.02,East,90,0.0,0.0,34,0.00,,---,0.00,VWS V14.01,2013-09-02 18:21:00,
2013-09-02 11:26:00,82.0,50.1,28.02,NNW,338,0.0,0.0,33,0.00,,---,0.00,VWS V14.01,2013-09-02 18:26:00,
2013-09-02 11:32:00,84.2,50.3,28.02,WNW,292,0.9,1.1,31,0.00,,---,0.00,VWS V14.01,2013-09-02 18:32:00,
2013-09-02 11:37:00,84.9,49.2,28.02,East,90,1.3,2.7,29,0.00,,---,0.00,VWS V14.01,2013-09-02 18:37:00,
2013-09-02 11:42:00,86.0,50.1,28.02,NNE,22,0.0,0.0,29,0.00,,---,0.00,VWS V14.01,2013-09-02 18:42:00,
2013-09-02 11:47:00,87.8,51.6,28.02,WNW,292,2.9,2.9,29,0.00,,---,0.00,VWS V14.01,2013-09-02 18:47:00,
2013-09-02 11:52:00,88.5,51.3,28.02,NNE,22,1.6,1.6,28,0.00,,---,0.00,VWS V14.01,2013-09-02 18:52:00,
2013-09-02 11:57:00,89.2,48.8,28.02,ENE,68,2.5,4.9,25,0.00,,---,0.00,VWS V14.01,2013-09-02 18:57:00,
2013-09-02 12:02:00,89.8,47.1,28.02,ENE,68,3.6,3.6,23,0.00,,---,0.00,VWS V14.01,2013-09-02 19:02:00,
2013-09-02 12:07:00,89.8,45.9,28.02,NNE,22,6.0,6.0,22,0.00,,---,0.00,VWS V14.01,2013-09-02 19:07:00,
2013-09-02 12:12:00,90.3,48.7,28.02,SE,135,1.3,2.9,24,0.00,,---,0.00,VWS V14.01,2013-09-02 19:12:00,
2013-09-02 12:17:00,90.7,47.8,28.02,NNW,338,1.3,2.2,23,0.00,,---,0.00,VWS V14.01,2013-09-02 19:17:00,
2013-09-02 12:22:00,90.5,46.5,28.02,ENE,68,1.6,3.1,22,0.00,,---,0.00,VWS V14.01,2013-09-02 19:22:00,
2013-09-02 12:27:00,90.1,45.0,28.02,SSW,202,3.6,3.6,21,0.00,,---,0.00,VWS V14.01,2013-09-02 19:27:00,
2013-09-02 12:32:00,90.0,46.1,28.02,ENE,68,3.8,3.8,22,0.00,,---,0.00,VWS V14.01,2013-09-02 19:32:00,
2013-09-02 12:37:00,89.2,45.5,28.02,ENE,68,0.0,3.8,22,0.00,,---,0.00,VWS V14.01,2013-09-02 19:37:00,
2013-09-02 12:42:00,88.5,46.0,28.02,NE,45,2.9,3.6,23,0.00,,---,0.00,VWS V14.01,2013-09-02 19:42:00,
2013-09-02 12:47:00,87.8,44.3,28.02,SW,225,2.9,4.0,22,0.00,,---,0.00,VWS V14.01,2013-09-02 19:47:00,
2013-09-02 12:52:00,87.6,45.3,28.02,ENE,68,3.8,3.8,23,0.00,,---,0.00,VWS V14.01,2013-09-02 19:52:00,
2013-09-02 12:57:00,87.6,46.4,28.02,NNE,22,2.0,4.0,24,0.00,,---,0.00,VWS V14.01,2013-09-02 19:57:00,
2013-09-02 13:02:00,87.4,45.1,28.02,NE,45,4.0,4.0,23,0.00,,---,0.00,VWS V14.01,2013-09-02 20:02:00,
2013-09-02 13:07:00,87.3,45.0,28.02,NE,45,2.5,2.5,23,0.00,,---,0.00,VWS V14.01,2013-09-02 20:07:00,
2013-09-02 13:12:00,87.3,45.0,28.02,East,90,3.4,3.4,23,0.00,,---,0.00,VWS V14.01,2013-09-02 20:12:00,
2013-09-02 13:17:00,87.4,44.0,27.99,NE,45,2.0,3.8,22,0.00,,---,0.00,VWS V14.01,2013-09-02 20:17:00,
2013-09-02 13:22:00,87.6,45.3,27.99,SE,135,2.2,2.5,23,0.00,,---,0.00,VWS V14.01,2013-09-02 20:22:00,
2013-09-02 13:27:00,87.6,44.1,27.99,NE,45,5.8,6.0,22,0.00,,---,0.00,VWS V14.01,2013-09-02 20:27:00,
2013-09-02 13:32:00,88.0,44.4,27.99,East,90,4.3,4.3,22,0.00,,---,0.00,VWS V14.01,2013-09-02 20:32:00,
2013-09-02 13:37:00,88.2,43.3,27.99,WSW,248,0.9,2.7,21,0.00,,---,0.00,VWS V14.01,2013-09-02 20:37:00,
2013-09-02 13:42:00,88.3,43.5,27.99,West,270,1.1,2.7,21,0.00,,---,0.00,VWS V14.01,2013-09-02 20:42:00,
2013-09-02 13:47:00,88.5,43.6,27.99,NNW,338,1.6,1.6,21,0.00,,---,0.00,VWS V14.01,2013-09-02 20:47:00,
2013-09-02 13:52:00,88.2,43.3,27.99,NNE,22,0.0,1.1,21,0.00,,---,0.00,VWS V14.01,2013-09-02 20:52:00,
2013-09-02 13:57:00,88.3,43.5,27.99,North,0,0.9,2.2,21,0.00,,---,0.00,VWS V14.01,2013-09-02 20:57:00,
2013-09-02 14:02:00,88.3,43.5,27.99,NE,45,2.9,2.9,21,0.00,,---,0.00,VWS V14.01,2013-09-02 21:02:00,
2013-09-02 14:07:00,88.5,42.4,27.99,WNW,292,0.0,2.2,20,0.00,,---,0.00,VWS V14.01,2013-09-02 21:07:00,
2013-09-02 14:12:00,89.1,42.8,27.99,SSE,158,2.5,2.5,20,0.00,,---,0.00,VWS V14.01,2013-09-02 21:12:00,
2013-09-02 14:17:00,89.2,43.0,27.99,West,270,0.0,1.3,20,0.00,,---,0.00,VWS V14.01,2013-09-02 21:17:00,
2013-09-02 14:22:00,89.4,43.1,27.99,ESE,112,2.5,2.7,20,0.00,,---,0.00,VWS V14.01,2013-09-02 21:22:00,
2013-09-02 14:27:00,89.4,44.4,27.99,NE,45,3.6,3.6,21,0.00,,---,0.00,VWS V14.01,2013-09-02 21:27:00,
2013-09-02 14:32:00,89.2,43.0,27.99,NNE,22,2.7,2.7,20,0.00,,---,0.00,VWS V14.01,2013-09-02 21:32:00,
2013-09-02 14:37:00,89.4,43.1,27.99,NE,45,2.9,2.9,20,0.00,,---,0.00,VWS V14.01,2013-09-02 21:37:00,
2013-09-02 14:42:00,90.1,42.4,27.99,East,90,2.5,3.8,19,0.00,,---,0.00,VWS V14.01,2013-09-02 21:42:00,
2013-09-02 14:47:00,90.5,42.7,27.99,NNE,22,3.4,3.4,19,0.00,,---,0.00,VWS V14.01,2013-09-02 21:47:00,
2013-09-02 14:52:00,91.0,43.1,27.99,East,90,0.9,2.0,19,0.00,,---,0.00,VWS V14.01,2013-09-02 21:52:00,
2013-09-02 14:58:00,91.8,43.7,27.99,NW,315,2.7,2.7,19,0.00,,---,0.00,VWS V14.01,2013-09-02 21:58:00,
2013-09-02 15:03:00,92.3,42.7,27.99,NNW,338,0.0,2.7,18,0.00,,---,0.00,VWS V14.01,2013-09-02 22:03:00,
2013-09-02 15:08:00,93.2,43.4,27.99,West,270,0.0,2.9,18,0.00,,---,0.00,VWS V14.01,2013-09-02 22:08:00,
2013-09-02 15:13:00,93.9,44.0,27.99,WSW,248,1.3,2.7,18,0.00,,---,0.00,VWS V14.01,2013-09-02 22:13:00,
2013-09-02 15:18:00,94.5,43.0,27.99,NW,315,1.6,4.3,17,0.00,,---,0.00,VWS V14.01,2013-09-02 22:18:00,
2013-09-02 15:23:00,95.7,44.0,27.99,ESE,112,2.7,2.7,17,0.00,,---,0.00,VWS V14.01,2013-09-02 22:23:00,
2013-09-02 15:28:00,96.6,44.7,27.99,SW,225,2.2,2.2,17,0.00,,---,0.00,VWS V14.01,2013-09-02 22:28:00,
2013-09-02 15:33:00,96.6,44.7,27.99,NW,315,0.0,0.0,17,0.00,,---,0.00,VWS V14.01,2013-09-02 22:33:00,
2013-09-02 15:38:00,96.4,44.6,27.99,WSW,248,0.0,3.1,17,0.00,,---,0.00,VWS V14.01,2013-09-02 22:38:00,
2013-09-02 15:43:00,96.8,44.8,27.99,WSW,248,0.0,0.0,17,0.00,,---,0.00,VWS V14.01,2013-09-02 22:43:00,
2013-09-02 15:48:00,97.0,43.4,27.99,South,180,1.6,2.9,16,0.00,,---,0.00,VWS V14.01,2013-09-02 22:48:00,
2013-09-02 15:53:00,97.0,45.0,27.99,West,270,0.0,1.6,17,0.00,,---,0.00,VWS V14.01,2013-09-02 22:53:00,
2013-09-02 15:58:00,95.2,43.5,27.99,SW,225,2.5,2.5,17,0.00,,---,0.00,VWS V14.01,2013-09-02 22:58:00,
2013-09-02 16:03:00,92.3,41.2,27.99,SSW,202,0.0,0.0,17,0.00,,---,0.00,VWS V14.01,2013-09-02 23:03:00,
2013-09-02 16:08:00,88.7,41.2,27.99,WSW,248,1.3,2.0,19,0.00,,---,0.00,VWS V14.01,2013-09-02 23:08:00,
2013-09-02 16:13:00,86.5,40.8,27.99,WSW,248,0.0,0.9,20,0.00,,---,0.00,VWS V14.01,2013-09-02 23:13:00,
2013-09-02 16:18:00,84.7,40.5,27.99,South,180,0.0,0.0,21,0.00,,---,0.00,VWS V14.01,2013-09-02 23:18:00,
2013-09-02 16:23:00,84.0,42.3,27.99,WSW,248,2.7,2.7,23,0.00,,---,0.00,VWS V14.01,2013-09-02 23:23:00,
2013-09-02 16:28:00,83.5,44.0,27.99,South,180,1.3,1.3,25,0.00,,---,0.00,VWS V14.01,2013-09-02 23:28:00,
2013-09-02 16:33:00,82.8,44.4,27.99,SW,225,1.3,1.3,26,0.00,,---,0.00,VWS V14.01,2013-09-02 23:33:00,
2013-09-02 16:38:00,81.7,46.4,27.99,SW,225,0.0,0.0,29,0.00,,---,0.00,VWS V14.01,2013-09-02 23:38:00,
2013-09-02 16:43:00,80.8,46.5,27.99,SW,225,0.0,0.0,30,0.00,,---,0.00,VWS V14.01,2013-09-02 23:43:00,
2013-09-02 16:48:00,79.9,46.6,27.99,NNW,338,4.9,4.9,31,0.00,,---,0.00,VWS V14.01,2013-09-02 23:48:00,
2013-09-02 16:53:00,80.4,46.2,27.99,WSW,248,0.0,0.0,30,0.00,,---,0.00,VWS V14.01,2013-09-02 23:53:00,
2013-09-02 16:58:00,79.7,46.4,27.96,SSW,202,0.0,1.1,31,0.00,,---,0.00,VWS V14.01,2013-09-02 23:58:00,
2013-09-02 17:03:00,79.2,46.0,27.96,SW,225,0.0,0.0,31,0.00,,---,0.00,VWS V14.01,2013-09-03 00:03:00,
2013-09-02 17:08:00,78.4,46.2,27.96,SSW,202,0.0,0.0,32,0.00,,---,0.00,VWS V14.01,2013-09-03 00:08:00,
2013-09-02 17:13:00,78.1,46.7,27.99,SW,225,0.0,0.0,33,0.00,,---,0.00,VWS V14.01,2013-09-03 00:13:00,
2013-09-02 17:18:00,77.4,46.8,27.99,SW,225,0.0,0.0,34,0.00,,---,0.00,VWS V14.01,2013-09-03 00:18:00,
2013-09-02 17:23:00,76.6,46.2,27.99,SW,225,0.0,0.0,34,0.00,,---,0.00,VWS V14.01,2013-09-03 00:23:00,
2013-09-02 17:28:00,76.1,46.5,27.99,SW,225,0.0,0.0,35,0.00,,---,0.00,VWS V14.01,2013-09-03 00:28:00,
2013-09-02 17:33:00,75.7,46.2,27.99,WSW,248,0.0,0.0,35,0.00,,---,0.00,VWS V14.01,2013-09-03 00:33:00,
2013-09-02 17:38:00,75.4,48.0,27.99,WNW,292,0.0,0.0,38,0.00,,---,0.00,VWS V14.01,2013-09-03 00:38:00,
2013-09-02 17:43:00,75.6,49.6,27.99,SSE,158,0.0,0.0,40,0.00,,---,0.00,VWS V14.01,2013-09-03 00:43:00,
2013-09-02 17:48:00,75.4,48.7,27.99,SW,225,0.0,0.0,39,0.00,,---,0.00,VWS V14.01,2013-09-03 00:48:00,
2013-09-02 17:53:00,75.0,49.8,27.99,SSE,158,0.0,0.0,41,0.00,,---,0.00,VWS V14.01,2013-09-03 00:53:00,
2013-09-02 17:58:00,74.8,49.6,27.99,WSW,248,0.0,0.0,41,0.00,,---,0.00,VWS V14.01,2013-09-03 00:58:00,
2013-09-02 18:03:00,74.7,49.4,27.99,WSW,248,0.0,0.0,41,0.00,,---,0.00,VWS V14.01,2013-09-03 01:03:00,
2013-09-02 18:08:00,74.7,49.4,27.99,SW,225,0.0,0.0,41,0.00,,---,0.00,VWS V14.01,2013-09-03 01:08:00,
2013-09-02 18:13:00,74.5,49.3,27.99,SSW,202,0.0,0.0,41,0.00,,---,0.00,VWS V14.01,2013-09-03 01:13:00,
2013-09-02 18:18:00,74.1,48.9,27.99,SW,225,0.0,0.0,41,0.00,,---,0.00,VWS V14.01,2013-09-03 01:18:00,
2013-09-02 18:23:00,73.8,50.5,27.99,SSW,202,0.0,0.0,44,0.00,,---,0.00,VWS V14.01,2013-09-03 01:23:00,
2013-09-02 18:28:00,73.4,50.2,27.99,SSW,202,0.0,0.0,44,0.00,,---,0.00,VWS V14.01,2013-09-03 01:28:00,
2013-09-02 18:33:00,73.4,49.6,27.99,SW,225,0.0,0.0,43,0.00,,---,0.00,VWS V14.01,2013-09-03 01:33:00,
2013-09-02 18:38:00,73.4,50.8,27.99,SSW,202,0.0,0.0,45,0.00,,---,0.00,VWS V14.01,2013-09-03 01:38:00,
2013-09-02 18:43:00,73.2,51.2,27.99,SW,225,0.0,0.0,46,0.00,,---,0.00,VWS V14.01,2013-09-03 01:43:00,
2013-09-02 18:48:00,72.9,51.5,27.99,ESE,112,0.0,0.0,47,0.00,,---,0.00,VWS V14.01,2013-09-03 01:48:00,
2013-09-02 18:53:00,72.3,52.1,27.99,WSW,248,0.0,0.0,49,0.00,,---,0.00,VWS V14.01,2013-09-03 01:53:00,
2013-09-02 18:58:00,71.8,52.2,27.99,WSW,248,0.0,0.0,50,0.00,,---,0.00,VWS V14.01,2013-09-03 01:58:00,
2013-09-02 19:03:00,71.4,51.8,27.99,WNW,292,0.0,0.0,50,0.00,,---,0.00,VWS V14.01,2013-09-03 02:03:00,
2013-09-02 19:08:00,70.9,52.4,27.99,WNW,292,0.0,0.0,52,0.00,,---,0.00,VWS V14.01,2013-09-03 02:08:00,
2013-09-02 19:13:00,70.5,51.5,27.99,WSW,248,0.0,0.0,51,0.00,,---,0.00,VWS V14.01,2013-09-03 02:13:00,
2013-09-02 19:18:00,70.3,51.4,27.99,WSW,248,0.0,0.0,51,0.00,,---,0.00,VWS V14.01,2013-09-03 02:18:00,
2013-09-02 19:23:00,70.2,51.7,27.99,SSW,202,0.0,0.0,52,0.00,,---,0.00,VWS V14.01,2013-09-03 02:23:00,
2013-09-02 19:28:00,69.4,51.6,28.02,SSW,202,0.0,0.0,53,0.00,,---,0.00,VWS V14.01,2013-09-03 02:28:00,
2013-09-02 19:33:00,69.1,51.8,28.02,WSW,248,0.0,0.0,54,0.00,,---,0.00,VWS V14.01,2013-09-03 02:33:00,
2013-09-02 19:38:00,68.7,51.9,28.02,WSW,248,0.0,0.0,55,0.00,,---,0.00,VWS V14.01,2013-09-03 02:38:00,
2013-09-02 19:43:00,68.0,51.2,28.02,WSW,248,0.0,0.0,55,0.00,,---,0.00,VWS V14.01,2013-09-03 02:43:00,
2013-09-02 19:48:00,67.5,51.2,28.02,WSW,248,0.0,0.0,56,0.00,,---,0.00,VWS V14.01,2013-09-03 02:48:00,
2013-09-02 19:53:00,67.1,50.9,28.02,WSW,248,0.0,0.0,56,0.00,,---,0.00,VWS V14.01,2013-09-03 02:53:00,
2013-09-02 19:59:00,66.7,50.6,28.02,WSW,248,0.0,0.0,56,0.00,,---,0.00,VWS V14.01,2013-09-03 02:59:00,
2013-09-02 20:04:00,66.4,50.2,28.02,WSW,248,0.0,0.0,56,0.00,,---,0.00,VWS V14.01,2013-09-03 03:04:00,
2013-09-02 20:09:00,66.0,50.4,28.02,WSW,248,0.0,0.0,57,0.00,,---,0.00,VWS V14.01,2013-09-03 03:09:00,
2013-09-02 20:14:00,65.7,50.5,28.02,WSW,248,0.0,0.0,58,0.00,,---,0.00,VWS V14.01,2013-09-03 03:14:00,
2013-09-02 20:19:00,65.3,50.2,28.02,WSW,248,0.0,0.0,58,0.00,,---,0.00,VWS V14.01,2013-09-03 03:19:00,
2013-09-02 20:24:00,64.9,49.8,28.02,WSW,248,0.0,0.0,58,0.00,,---,0.00,VWS V14.01,2013-09-03 03:24:00,
2013-09-02 20:29:00,64.8,50.1,28.02,WSW,248,0.0,0.0,59,0.00,,---,0.00,VWS V14.01,2013-09-03 03:29:00,
2013-09-02 20:34:00,64.2,50.1,28.02,WSW,248,0.0,0.0,60,0.00,,---,0.00,VWS V14.01,2013-09-03 03:34:00,
2013-09-02 20:39:00,63.9,49.7,28.02,WSW,248,0.0,0.0,60,0.00,,---,0.00,VWS V14.01,2013-09-03 03:39:00,
2013-09-02 20:44:00,63.7,50.0,28.05,WSW,248,0.0,0.0,61,0.00,,---,0.00,VWS V14.01,2013-09-03 03:44:00,
2013-09-02 20:49:00,63.3,49.7,28.05,WSW,248,0.0,0.0,61,0.00,,---,0.00,VWS V14.01,2013-09-03 03:49:00,
2013-09-02 20:54:00,63.1,49.5,28.05,WSW,248,0.0,0.0,61,0.00,,---,0.00,VWS V14.01,2013-09-03 03:54:00,
2013-09-02 20:59:00,63.1,49.9,28.05,WNW,292,0.0,0.0,62,0.00,,---,0.00,VWS V14.01,2013-09-03 03:59:00,
2013-09-02 21:01:00,63.0,49.8,28.05,WNW,292,0.0,0.0,62,0.00,,---,0.00,VWS V14.01,2013-09-03 04:01:00,
2013-09-02 21:02:00,63.0,50.2,28.05,WNW,292,0.0,0.0,63,0.00,,---,0.00,VWS V14.01,2013-09-03 04:02:00,
2013-09-02 21:03:00,62.8,50.0,28.05,WNW,292,0.0,0.0,63,0.00,,---,0.00,VWS V14.01,2013-09-03 04:03:00,
2013-09-02 21:09:00,62.4,49.7,28.05,West,270,0.0,0.0,63,0.00,,---,0.00,VWS V14.01,2013-09-03 04:09:00,
2013-09-02 21:14:00,62.2,49.9,28.05,WNW,292,0.0,0.0,64,0.00,,---,0.00,VWS V14.01,2013-09-03 04:14:00,
2013-09-02 21:19:00,61.9,50.0,28.05,WNW,292,0.0,0.0,65,0.00,,---,0.00,VWS V14.01,2013-09-03 04:19:00,
2013-09-02 21:24:00,61.5,49.7,28.05,WNW,292,0.0,0.0,65,0.00,,---,0.00,VWS V14.01,2013-09-03 04:24:00,
2013-09-02 21:29:00,61.3,49.5,28.05,WNW,292,0.0,0.0,65,0.00,,---,0.00,VWS V14.01,2013-09-03 04:29:00,
2013-09-02 21:34:00,61.0,49.5,28.05,WNW,292,0.0,0.0,66,0.00,,---,0.00,VWS V14.01,2013-09-03 04:34:00,
2013-09-02 21:39:00,60.8,49.4,28.05,WNW,292,0.0,0.0,66,0.00,,---,0.00,VWS V14.01,2013-09-03 04:39:00,
2013-09-02 21:44:00,60.6,49.6,28.05,WNW,292,0.0,0.0,67,0.00,,---,0.00,VWS V14.01,2013-09-03 04:44:00,
2013-09-02 21:49:00,60.4,50.2,28.05,WNW,292,0.0,0.0,69,0.00,,---,0.00,VWS V14.01,2013-09-03 04:49:00,
2013-09-02 21:54:00,60.3,49.7,28.05,WNW,292,0.0,0.0,68,0.00,,---,0.00,VWS V14.01,2013-09-03 04:54:00,
2013-09-02 21:59:00,60.1,49.9,28.05,NW,315,0.0,0.0,69,0.00,,---,0.00,VWS V14.01,2013-09-03 04:59:00,
2013-09-02 22:04:00,59.7,49.5,28.05,WNW,292,0.0,0.0,69,0.00,,---,0.00,VWS V14.01,2013-09-03 05:04:00,
2013-09-02 22:09:00,59.4,49.2,28.05,WNW,292,0.0,0.0,69,0.00,,---,0.00,VWS V14.01,2013-09-03 05:09:00,
2013-09-02 22:14:00,59.5,49.8,28.08,WNW,292,0.0,0.0,70,0.00,,---,0.00,VWS V14.01,2013-09-03 05:14:00,
2013-09-02 22:19:00,59.4,50.0,28.08,WNW,292,0.0,0.0,71,0.00,,---,0.00,VWS V14.01,2013-09-03 05:19:00,
2013-09-02 22:24:00,59.2,49.8,28.08,WNW,292,0.0,0.0,71,0.00,,---,0.00,VWS V14.01,2013-09-03 05:24:00,
2013-09-02 22:29:00,58.8,49.8,28.08,WNW,292,0.0,0.0,72,0.00,,---,0.00,VWS V14.01,2013-09-03 05:29:00,
2013-09-02 22:34:00,58.6,49.7,28.08,WNW,292,0.0,0.0,72,0.00,,---,0.00,VWS V14.01,2013-09-03 05:34:00,
2013-09-02 22:39:00,58.8,49.8,28.08,WNW,292,0.0,0.0,72,0.00,,---,0.00,VWS V14.01,2013-09-03 05:39:00,
2013-09-02 22:44:00,58.8,49.8,28.08,WSW,248,0.0,0.0,72,0.00,,---,0.00,VWS V14.01,2013-09-03 05:44:00,
2013-09-02 22:49:00,58.6,50.0,28.08,WNW,292,0.0,0.0,73,0.00,,---,0.00,VWS V14.01,2013-09-03 05:49:00,
2013-09-02 22:54:00,58.3,49.7,28.08,WSW,248,0.0,0.0,73,0.00,,---,0.00,VWS V14.01,2013-09-03 05:54:00,
2013-09-02 22:59:00,58.5,49.8,28.08,WSW,248,0.0,0.0,73,0.00,,---,0.00,VWS V14.01,2013-09-03 05:59:00,
2013-09-02 23:04:00,58.3,49.7,28.08,WSW,248,0.0,0.0,73,0.00,,---,0.00,VWS V14.01,2013-09-03 06:04:00,
2013-09-02 23:09:00,58.1,49.5,28.08,WSW,248,0.0,0.0,73,0.00,,---,0.00,VWS V14.01,2013-09-03 06:09:00,
2013-09-02 23:14:00,57.9,49.7,28.11,WSW,248,0.0,0.0,74,0.00,,---,0.00,VWS V14.01,2013-09-03 06:14:00,
2013-09-02 23:20:00,57.6,49.3,28.11,WSW,248,0.0,0.0,74,0.00,,---,0.00,VWS V14.01,2013-09-03 06:20:00,
2013-09-02 23:25:00,57.7,49.5,28.11,WSW,248,0.0,0.0,74,0.00,,---,0.00,VWS V14.01,2013-09-03 06:25:00,
2013-09-02 23:30:00,57.6,49.7,28.08,WSW,248,0.0,0.0,75,0.00,,---,0.00,VWS V14.01,2013-09-03 06:30:00,
2013-09-02 23:35:00,57.4,49.9,28.08,WSW,248,0.0,0.0,76,0.00,,---,0.00,VWS V14.01,2013-09-03 06:35:00,
2013-09-02 23:40:00,57.2,49.7,28.08,WSW,248,0.0,0.0,76,0.00,,---,0.00,VWS V14.01,2013-09-03 06:40:00,
2013-09-02 23:45:00,57.0,49.5,28.11,WSW,248,0.0,0.0,76,0.00,,---,0.00,VWS V14.01,2013-09-03 06:45:00,
2013-09-02 23:50:00,56.8,49.4,28.11,West,270,0.0,0.0,76,0.00,,---,0.00,VWS V14.01,2013-09-03 06:50:00,
2013-09-02 23:55:00,56.8,49.7,28.11,West,270,0.0,0.0,77,0.00,,---,0.00,VWS V14.01,2013-09-03 06:55:00,